CAPE
2 3 16 69 328 589 531 556 751 811 452 431 602 516 421 359 281 160 233 235 276 689 486 626 620 336 456 423 431 633 475 329 209
0 1 1 67 266 548 545 612 776 845 633 481 591 608 434 434 187 133 144 206 212 552 589 758 454 418 623 421 378 500 362 265 196
4 3 19 100 243 324 434 710 821 703 658 548 491 439 488 384 149 140 102 89 151 261 509 377 544 459 425 414 393 411 354 226 143
3 4 113 164 130 186 277 438 662 728 604 590 421 400 552 474 190 160 134 153 225 105 469 359 334 690 407 406 424 263 315 239 149
1 1 11 6 31 235 380 393 528 568 496 573 510 457 522 392 344 186 146 210 155 96 351 251 229 575 496 270 227 159 165 227 167
0 0 0 1 0 17 145 315 388 411 337 345 355 354 348 313 217 236 205 256 291 161 231 204 232 272 297 199 144 84 108 105 184
0 0 0 0 0 0 2 29 121 228 177 87 257 262 249 186 159 206 233 270 372 138 146 215 142 46 48 12 5 99 180 124 208
0 0 0 0 0 0 0 0 4 59 127 173 156 139 110 129 124 93 104 196 248 217 153 178 186 12 0 13 0 54 104 154 201
0 0 0 0 0 0 0 0 0 0 0 45 157 138 23 32 57 50 68 127 308 238 152 128 151 73 116 135 60 3 8 56 130
0 0 0 0 0 0 0 0 0 0 0 0 0 0 33 68 111 98 66 80 101 173 219 157 163 54 47 37 51 65 24 62 71
0 0 0 0 0 0 0 0 0 0 0 0 0 0 0 1 32 90 64 66 63 77 98 70 91 146 58 17 32 21 37 22 67
0 0 0 0 0 0 0 0 0 0 0 0 0 0 0 0 2 1 4 86 48 56 90 112 90 106 52 54 32 10 12 22 3
0 0 0 0 0 0 0 0 0 0 0 0 0 0 0 0 0 2 2 1 1 2 3 1 3 1 7 16 25 32 14 0 12
0 0 0 0 0 0 0 0 0 0 0 0 0 1 1 0 1 1 1 2 3 3 6 7 4 12 62 50 81 119 65 45 26
0 0 0 0 0 0 0 0 0 0 0 0 0 0 0 0 0 0 0 0 1 1 4 3 4 6 5 5 17 46 134 132 40
0 0 0 0 0 0 0 0 0 0 0 0 0 0 0 0 0 0 0 0 0 0 1 1 3 3 6 4 8 3 66 67 120
0 0 0 0 0 0 0 0 0 0 0 0 0 0 0 0 0 0 0 0 0 0 0 0 0 0 3 5 5 4 7 92 86
0 0 0 0 0 0 0 0 0 0 0 0 0 0 0 0 0 0 0 0 0 0 0 0 0 0 0 0 2 2 3 13 14
0 0 0 0 0 0 0 0 0 0 0 0 0 0 0 0 0 0 0 0 0 0 0 0 0 0 0 0 2 3 2 10 17
0 0 0 0 0 0 0 0 0 0 0 0 0 0 0 0 0 0 0 0 0 0 0 0 0 0 0 0 0 4 6 8 13
CIN
-0 -2 -186 -95 -12 -0 -2 -3 -0 -0 -17 -8 -2 -3 -5 -17 -24 -34 -22 -17 -20 -0 -3 -2 -1 -5 -4 -9 -6 -0 -2 -3 -16
-0 -0 -1 -110 -29 -0 -0 -0 -0 -0 -8 -20 -2 -1 -4 -9 -55 -51 -41 -33 -23 -2 -0 -1 -7 -5 -1 -5 -3 -2 -1 -3 -12
-0 -0 -182 -131 -29 -18 -7 -0 -0 -0 -2 -8 -10 -11 -5 -6 -62 -64 -62 -54 -23 -8 -1 -4 -4 -7 -5 -6 -5 -5 -0 -9 -13
-0 -0 -170 -109 -107 -49 -10 -0 -0 -0 -14 -10 -20 -17 -3 -3 -40 -61 -68 -44 -21 -22 -3 -3 -6 -1 -6 -6 -4 -9 -3 -4 -12
-0 -0 -1 -6 -231 -50 -8 -2 -0 -0 -13 -11 -15 -12 -7 -13 -15 -51 -56 -42 -20 -23 -4 -11 -11 -4 -1 -7 -8 -11 -11 -0 -1
-0 -0 -0 -0 -0 -209 -100 -14 -5 -12 -29 -29 -30 -31 -24 -29 -40 -26 -39 -19 -15 -19 -18 -2 -5 -10 -5 -5 -6 -13 -6 -11 -1
-0 -0 -0 -0 -0 -0 -0 -244 -110 -47 -74 -127 -56 -48 -50 -79 -87 -54 -27 -28 -8 -17 -14 -9 -14 -23 -26 -14 -23 -2 -1 -9 -1
-0 -0 -0 -0 -0 -0 -0 -0 -89 -181 -91 -61 -76 -71 -102 -86 -84 -104 -79 -34 -16 -16 -18 -4 -6 -30 -0 -23 -0 -4 -1 -1 -2
-0 -0 -0 -0 -0 -0 -0 -0 -0 -0 -0 -122 -59 -66 -125 -128 -106 -103 -92 -50 -6 -37 -31 -18 -0 -0 -0 -0 -4 -17 -89 -5 -5
-0 -0 -0 -0 -0 -0 -0 -0 -0 -0 -0 -0 -0 -0 -51 -65 -55 -59 -71 -84 -45 -16 -10 -13 -2 -0 -1 -4 -0 -0 -1 -4 -5
-0 -0 -0 -0 -0 -0 -0 -0 -0 -0 -0 -0 -0 -0 -0 -0 -68 -35 -38 -41 -55 -49 -6 -22 -6 -1 -3 -19 -8 -11 -7 -2 -0
-0 -0 -0 -0 -0 -0 -0 -0 -0 -0 -0 -0 -0 -0 -0 -0 -0 -0 -3 -8 -28 -18 -35 -10 -6 -2 -21 -0 -4 -32 -44 -1 -1
-0 -0 -0 -0 -0 -0 -0 -0 -0 -0 -0 -0 -0 -0 -0 -0 -0 -0 -0 -0 -0 -0 -0 -9 -105 -34 -13 -55 -1 -6 -24 -33 -25
-0 -0 -0 -0 -0 -0 -0 -0 -0 -0 -0 -0 -0 -0 -0 -0 -0 -0 -0 -0 -0 -0 -0 -0 -0 -46 -6 -29 -0 -0 -0 -4 -2
-0 -0 -0 -0 -0 -0 -0 -0 -0 -0 -0 -0 -0 -0 -0 -0 -0 -0 -0 -0 -0 -0 -0 -0 -0 -0 -0 -0 -34 -7 -0 -0 -4
-0 -0 -0 -0 -0 -0 -0 -0 -0 -0 -0 -0 -0 -0 -0 -0 -0 -0 -0 -0 -0 -0 -0 -0 -0 -0 -0 -0 -0 -0 -1 -8 -1
-0 -0 -0 -0 -0 -0 -0 -0 -0 -0 -0 -0 -0 -0 -0 -0 -0 -0 -0 -0 -0 -0 -0 -0 -0 -0 -0 -0 -0 -0 -0 -1 -0
-0 -0 -0 -0 -0 -0 -0 -0 -0 -0 -0 -0 -0 -0 -0 -0 -0 -0 -0 -0 -0 -0 -0 -0 -0 -0 -0 -0 -0 -0 -0 -0 -3
-0 -0 -0 -0 -0 -0 -0 -0 -0 -0 -0 -0 -0 -0 -0 -0 -0 -0 -0 -0 -0 -0 -0 -0 -0 -0 -0 -0 -0 -0 -0 -0 -0
-0 -0 -0 -0 -0 -0 -0 -0 -0 -0 -0 -0 -0 -0 -0 -0 -0 -0 -0 -0 -0 -0 -0 -0 -0 -0 -0 -0 -0 -0 -0 -0 -0
Wind_Speed
22 24 24 24 25 24 19 19 20 18 19 19 18 17 17 18 17 16 15 16 14 13 11 7 7 9 9 6 4 4 5 5 6
19 19 20 22 22 23 22 21 21 20 19 19 20 19 19 17 18 17 16 18 21 14 13 8 7 8 10 8 8 6 8 8 8
18 19 20 21 22 23 23 22 20 20 20 20 20 20 19 20 18 18 19 21 21 15 12 10 8 9 11 11 9 9 9 10 11
19 19 21 20 20 22 22 22 21 21 20 20 20 20 20 21 21 19 20 24 20 17 20 13 10 11 13 13 10 9 12 13 12
20 20 21 22 22 22 21 22 22 21 20 20 20 21 21 21 22 21 21 23 23 21 25 19 16 13 14 14 12 11 12 15 14
21 20 20 21 22 22 22 22 22 20 20 20 21 22 22 22 23 24 25 26 25 25 25 21 17 15 14 15 14 12 11 14 17
22 20 20 21 22 22 22 22 21 21 20 20 21 21 22 23 24 24 26 27 29 27 27 19 19 20 18 18 19 17 11 10 18
22 21 21 22 22 22 21 21 21 22 21 21 20 22 22 23 23 24 26 26 27 26 25 24 21 20 20 23 21 28 16 13 16
22 21 21 21 21 21 21 20 21 21 21 22 23 23 27 27 26 26 25 23 24 22 24 27 26 18 20 19 22 23 22 26 20
22 22 22 21 21 21 21 21 20 21 21 22 22 23 24 26 26 26 26 24 23 23 22 24 27 12 16 19 19 23 23 24 26
22 22 22 23 22 21 21 21 21 22 22 22 23 23 24 24 25 26 27 27 26 25 25 25 24 21 12 23 23 22 20 23 27
21 21 22 22 22 22 21 22 22 22 21 22 23 23 22 24 25 25 25 26 27 29 29 27 25 25 26 25 18 25 26 22 23
21 21 22 22 22 22 22 22 22 23 23 22 22 22 21 21 23 23 23 24 25 26 27 30 29 30 32 29 28 26 25 29 30
21 21 22 22 22 23 23 23 23 23 22 22 21 20 20 21 21 22 22 22 23 23 26 26 25 29 30 31 34 34 32 30 32
20 21 22 22 23 23 23 22 23 24 21 20 21 21 20 20 21 21 21 22 23 23 24 25 27 26 25 28 29 29 30 36 30
20 21 22 23 23 23 24 22 24 25 25 21 20 21 21 21 21 21 21 22 22 22 23 22 23 23 24 27 25 27 28 32 30
21 21 22 23 23 24 25 25 24 24 26 24 22 24 23 23 22 22 22 22 22 23 23 22 22 22 22 23 24 25 27 28 31
20 21 22 22 23 24 25 25 25 26 25 25 24 26 26 25 23 23 23 24 23 23 23 23 23 23 22 23 24 24 23 23 23
20 21 22 22 23 24 25 25 25 25 27 25 24 22 23 27 27 23 23 24 24 24 24 24 24 23 23 23 24 24 22 23 22
20 21 22 23 24 24 25 26 27 26 26 26 26 25 24 24 26 30 27 25 24 24 24 25 25 25 25 25 25 25 24 24 23
Wind_Direction
318 310 307 305 304 306 314 316 317 317 316 315 314 320 321 311 313 310 301 294 295 292 295 297 288 276 269 262 248 249 261 271 283
331 328 321 313 310 306 311 310 312 313 314 314 311 312 312 319 306 303 297 287 282 290 287 289 281 271 265 259 254 255 261 266 270
342 333 323 319 311 307 306 308 313 312 311 310 309 309 310 308 307 297 292 283 283 289 288 283 277 267 262 257 253 254 257 262 267
335 331 331 329 319 311 309 309 312 313 312 310 308 307 306 301 298 295 291 283 282 286 279 280 276 268 263 260 255 254 256 260 261
337 332 328 323 321 320 313 309 308 311 313 313 309 305 303 300 296 293 290 286 280 283 278 281 273 268 263 259 257 260 261 257 257
333 332 330 330 325 320 315 311 309 312 312 313 312 305 301 299 296 291 285 283 283 280 277 278 275 270 266 261 262 262 261 260 256
338 335 332 330 328 322 318 315 311 310 309 310 313 310 303 298 295 294 290 283 279 281 278 280 274 272 269 266 266 267 262 261 256
349 342 337 333 328 325 320 319 316 311 310 309 308 307 304 301 299 297 292 289 282 284 284 278 274 272 274 263 265 254 271 268 261
351 345 343 343 334 331 325 321 318 316 313 310 307 304 297 296 296 296 298 296 290 290 288 284 282 272 267 268 265 268 267 260 264
360 350 348 346 341 334 329 325 322 318 316 315 312 309 307 300 296 294 294 296 294 291 289 295 292 289 281 276 280 268 265 263 262
0 350 348 350 344 339 335 329 324 316 316 316 314 310 310 308 304 298 292 292 290 292 291 291 296 293 317 282 275 278 282 268 264
355 351 349 351 349 343 339 334 329 323 324 319 316 315 314 310 307 305 301 294 292 287 289 290 291 292 290 300 293 280 278 283 276
3 359 354 354 354 348 345 339 337 331 331 327 324 319 320 317 313 314 308 305 299 298 296 290 289 289 287 288 297 287 287 275 274
11 6 355 352 352 350 345 343 341 339 339 339 338 336 328 321 316 314 317 313 312 308 307 303 303 296 289 278 285 281 280 280 275
9 5 357 347 347 347 345 344 342 338 337 345 347 342 342 337 329 320 317 316 316 316 315 314 302 305 301 292 288 289 280 268 275
5 3 357 348 343 341 342 342 339 336 330 328 330 335 337 339 334 330 325 321 320 320 318 321 316 318 306 304 297 293 290 277 279
356 357 353 347 339 336 335 336 335 336 338 329 324 314 316 322 326 326 327 326 324 321 319 321 324 322 323 323 314 309 303 290 277
355 354 350 347 338 333 332 331 330 324 330 335 323 310 308 312 318 320 322 321 321 322 323 323 319 317 319 318 319 322 323 316 303
351 350 346 344 340 331 326 326 325 323 321 323 327 326 318 307 305 315 317 319 318 318 317 317 318 319 317 316 313 316 319 321 319
346 345 342 338 337 333 328 323 321 321 319 319 317 317 316 316 307 302 307 315 316 319 317 313 313 314 313 311 309 311 310 310 314